GW5240 Weather Reports


time (UTC)temp
F
wind
direction
speed
knots
gust
knots
rain 1hr
in
rain 24hr
in
rain mn
in
humidity
%
barometer
mb
20260507203344 60 308 3.5 4.3 0.00 0.00 0.00 28 1011.0
20260507202840 60 293 7.0 8.7 0.00 0.00 0.00 26 1010.9
20260507202337 60 211 2.6 4.3 0.00 0.00 0.00 27 1010.8
20260507201832 60 145 0.9 1.7 0.00 0.00 0.00 28 1011.1
20260507201328 59 170 0.9 1.7 0.00 0.00 0.00 28 1011.0
20260507200825 58 283 1.7 1.7 0.00 0.00 0.00 26 1010.9
20260507200321 59 81 3.5 4.3 0.00 0.00 0.00 29 1011.1
20260507195817 59 185 1.7 2.6 0.00 0.00 0.00 29 1011.1
20260507195314 58 232 3.5 6.1 0.00 0.00 0.00 27 1011.4
20260507194812 59 167 0.9 1.7 0.00 0.00 0.00 27 1011.2
20260507194308 60 54 4.3 4.3 0.00 0.00 0.00 29 1011.2
20260507193804 59 206 1.7 2.6 0.00 0.00 0.00 30 1011.4
20260507193301 58 257 4.3 6.1 0.00 0.00 0.00 31 1011.4
20260507192757 58 29 2.6 4.3 0.00 0.00 0.00 29 1011.1
20260507192254 58 155 1.7 2.6 0.00 0.00 0.00 30 1011.4
20260507191750 57 294 1.7 2.6 0.00 0.00 0.00 32 1011.5
20260507191247 57 130 1.7 2.6 0.00 0.00 0.00 27 1011.4
20260507190744 58 165 1.7 4.3 0.00 0.00 0.00 29 1011.4
20260507190242 57 85 1.7 2.6 0.00 0.00 0.00 31 1011.4
20260507185741 57 299 2.6 2.6 0.00 0.00 0.00 33 1011.3
20260507185237 57 197 1.7 2.6 0.00 0.00 0.00 27 1011.3
20260507184735 56 357 1.7 2.6 0.00 0.00 0.00 33 1011.2
20260507184233 56 163 0.0 1.7 0.00 0.00 0.00 28 1011.6
20260507183729 56 100 4.3 7.8 0.00 0.00 0.00 28 1011.6
20260507183226 56 6 5.2 7.8 0.00 0.00 0.00 31 1011.7
20260507182723 56 174 0.0 0.0 0.00 0.00 0.00 31 1011.7
20260507182218 57 96 2.6 2.6 0.00 0.00 0.00 28 1011.7
20260507181715 56 25 6.1 8.7 0.00 0.00 0.00 29 1011.8
20260507181206 56 32 4.3 4.3 0.00 0.00 0.00 30 1011.8
20260507180702 56 17 4.3 6.1 0.00 0.00 0.00 30 1011.7
20260507180200 54 132 0.9 1.7 0.00 0.00 0.00 32 1011.9
20260507175655 55 21 5.2 6.1 0.00 0.00 0.00 31 1011.6
20260507175152 56 4 3.5 4.3 0.00 0.00 0.00 30 1012.0
20260507174649 56 270 2.6 2.6 0.00 0.00 0.00 31 1012.0
20260507174148 56 304 2.6 4.3 0.00 0.00 0.00 35 1011.9
20260507173644 55 169 0.9 1.7 0.00 0.00 0.00 39 1012.1
20260507173141 54 332 2.6 2.6 0.00 0.00 0.00 32 1011.9
20260507172637 55 92 5.2 8.7 0.00 0.00 0.00 28 1012.2
20260507172135 54 187 0.9 1.7 0.00 0.00 0.00 32 1012.1
20260507171635 55 36 3.5 4.3 0.00 0.00 0.00 29 1012.3
20260507171133 54 92 3.5 6.1 0.00 0.00 0.00 31 1012.2
20260507170630 55 128 2.6 4.3 0.00 0.00 0.00 32 1012.2
20260507170127 55 102 1.7 1.7 0.00 0.00 0.00 32 1012.4
20260507165622 55 174 1.7 2.6 0.00 0.00 0.00 35 1012.3
20260507165119 54 190 2.6 4.3 0.00 0.00 0.00 32 1012.3
20260507164614 54 172 0.0 1.7 0.00 0.00 0.00 36 1012.5
20260507164112 53 15 4.3 6.1 0.00 0.00 0.00 34 1012.3
20260507163609 53 14 3.5 4.3 0.00 0.00 0.00 31 1012.5
20260507163108 52 268 0.9 2.6 0.00 0.00 0.00 35 1012.5
20260507162607 53 30 1.7 2.6 0.00 0.00 0.00 34 1012.8
20260507162105 53 124 0.0 1.7 0.00 0.00 0.00 33 1012.7
20260507161600 53 343 2.6 2.6 0.00 0.00 0.00 33 1012.6
20260507161057 54 70 1.7 1.7 0.00 0.00 0.00 32 1012.8
20260507160554 54 178 2.6 2.6 0.00 0.00 0.00 35 1012.7
20260507160050 52 156 0.0 0.0 0.00 0.00 0.00 34 1012.8
20260507155545 53 142 2.6 2.6 0.00 0.00 0.00 34 1012.7
20260507155043 52 199 1.7 2.6 0.00 0.00 0.00 35 1012.9
20260507154540 52 245 4.3 6.1 0.00 0.00 0.00 35 1013.1
20260507154037 52 338 3.5 4.3 0.00 0.00 0.00 36 1012.7
20260507153534 52 138 4.3 6.1 0.00 0.00 0.00 33 1012.7
20260507153030 52 354 1.7 2.6 0.00 0.00 0.00 38 1012.8
20260507152525 52 166 0.0 0.0 0.00 0.00 0.00 37 1012.9
20260507152022 51 151 0.0 0.0 0.00 0.00 0.00 37 1012.9
20260507151518 51 185 0.0 0.0 0.00 0.00 0.00 37 1013.1
20260507151015 51 289 1.7 2.6 0.00 0.00 0.00 40 1013.1
20260507150512 51 100 3.5 4.3 0.00 0.00 0.00 38 1013.1
20260507150009 50 192 1.7 1.7 0.00 0.00 0.00 38 1012.8
20260507145504 50 177 1.7 2.6 0.00 0.00 0.00 39 1012.7
20260507145002 49 130 2.6 2.6 0.00 0.00 0.00 40 1013.1
20260507144458 49 165 0.0 1.7 0.00 0.00 0.00 41 1013.1
20260507143955 49 156 0.0 1.7 0.00 0.00 0.00 41 1013.1
20260507143453 49 346 0.9 1.7 0.00 0.00 0.00 41 1013.1
20260507142949 48 181 0.9 1.7 0.00 0.00 0.00 41 1013.1
20260507142445 48 164 1.7 2.6 0.00 0.00 0.00 41 1013.3
20260507141943 47 169 0.0 0.0 0.00 0.00 0.00 44 1013.2
20260507141438 47 89 2.6 2.6 0.00 0.00 0.00 45 1013.2
20260507140935 47 163 0.0 1.7 0.00 0.00 0.00 46 1013.3
20260507140432 47 144 1.7 2.6 0.00 0.00 0.00 44 1013.2
20260507135930 48 213 0.9 1.7 0.00 0.00 0.00 45 1013.2
20260507135426 47 157 0.0 0.0 0.00 0.00 0.00 46 1013.1
20260507134924 46 160 0.9 1.7 0.00 0.00 0.00 49 1013.2
20260507134420 45 194 1.7 2.6 0.00 0.00 0.00 50 1013.5
20260507133916 44 238 0.0 1.7 0.00 0.00 0.00 52 1013.3
20260507133412 43 179 0.9 1.7 0.00 0.00 0.00 54 1013.3
20260507132911 43 110 0.9 1.7 0.00 0.00 0.00 57 1013.4
20260507132407 42 163 0.0 0.0 0.00 0.00 0.00 59 1013.4
20260507131905 42 312 1.7 1.7 0.00 0.00 0.00 61 1013.4
20260507131400 41 163 0.0 0.0 0.00 0.00 0.00 63 1013.5
20260507130857 41 162 0.0 0.0 0.00 0.00 0.00 65 1013.5
20260507130354 40 94 1.7 1.7 0.00 0.00 0.00 67 1013.5
20260507125853 39 177 0.0 0.0 0.00 0.00 0.00 70 1013.5
20260507125350 38 168 0.0 0.0 0.00 0.00 0.00 75 1013.6
20260507124848 38 154 0.0 0.0 0.00 0.00 0.00 78 1013.6
20260507124344 37 167 0.0 0.0 0.00 0.00 0.00 83 1013.6
20260507123843 36 164 0.0 0.0 0.00 0.00 0.00 87 1013.6
20260507123339 35 164 0.0 0.0 0.00 0.00 0.00 90 1013.6
20260507122835 34 167 0.0 0.0 0.00 0.00 0.00 93 1013.7
20260507122331 32 164 0.0 0.0 0.00 0.00 0.00 95 1013.7
20260507121828 31 163 0.0 0.0 0.00 0.00 0.00 94 1013.7
20260507121323 30 163 0.0 0.0 0.00 0.00 0.00 94 1013.7
20260507120820 30 163 0.0 0.0 0.00 0.00 0.00 94 1013.6
20260507120316 29 163 0.0 0.0 0.00 0.00 0.00 93 1013.6
20260507115812 29 163 0.0 0.0 0.00 0.00 0.00 93 1013.7
20260507115308 29 163 0.0 0.0 0.00 0.00 0.00 93 1013.7
20260507114804 29 163 0.0 0.0 0.00 0.00 0.00 93 1013.5
20260507114301 28 163 0.0 0.0 0.00 0.00 0.00 93 1013.6
20260507113759 28 163 0.0 0.0 0.00 0.00 0.00 93 1013.7
20260507113256 28 163 0.0 0.0 0.00 0.00 0.00 92 1013.7
20260507112753 28 163 0.0 0.0 0.00 0.00 0.00 92 1013.6
20260507112250 28 163 0.0 0.0 0.00 0.00 0.00 92 1013.2
20260507111748 28 163 0.0 0.0 0.00 0.00 0.00 92 1013.5
20260507111244 28 163 0.0 0.0 0.00 0.00 0.00 92 1013.5
20260507110740 28 160 0.0 0.0 0.00 0.00 0.00 92 1013.5
20260507110237 28 159 0.0 0.0 0.00 0.00 0.00 92 1013.2
20260507105734 28 167 0.0 0.0 0.00 0.00 0.00 92 1013.5
20260507105230 28 167 0.0 0.0 0.00 0.00 0.00 92 1013.5
20260507104727 29 167 0.0 0.0 0.00 0.00 0.00 92 1013.5
20260507104224 28 167 0.0 0.0 0.00 0.00 0.00 92 1013.4
20260507103720 28 167 0.0 0.0 0.00 0.00 0.00 91 1013.4
20260507103216 28 167 0.0 0.0 0.00 0.00 0.00 91 1013.4
20260507102713 28 167 0.0 0.0 0.00 0.00 0.00 91 1013.3
20260507102209 29 167 0.0 0.0 0.00 0.00 0.00 91 1013.3
20260507101705 29 167 0.0 0.0 0.00 0.00 0.00 91 1013.3
20260507101201 29 167 0.0 0.0 0.00 0.00 0.00 90 1013.5
20260507100658 29 167 0.0 0.0 0.00 0.00 0.00 90 1013.6
20260507100157 29 167 0.0 0.0 0.00 0.00 0.00 90 1013.5
20260507095654 29 167 0.0 0.0 0.00 0.00 0.00 90 1013.5
20260507095151 29 167 0.0 0.0 0.00 0.00 0.00 90 1013.6
20260507094647 29 167 0.0 0.0 0.00 0.00 0.00 89 1013.7
20260507094144 29 167 0.0 0.0 0.00 0.00 0.00 89 1013.5
20260507093642 29 167 0.0 0.0 0.00 0.00 0.00 89 1013.5
20260507093141 29 167 0.0 0.0 0.00 0.00 0.00 89 1013.5
20260507092636 30 167 0.0 0.0 0.00 0.00 0.00 89 1013.6
20260507092133 29 167 0.0 0.0 0.00 0.00 0.00 89 1013.7
20260507091629 30 167 0.0 0.0 0.00 0.00 0.00 88 1013.7
20260507091125 29 167 0.0 0.0 0.00 0.00 0.00 88 1013.6
20260507090621 30 167 0.0 0.0 0.00 0.00 0.00 88 1013.6
20260507090119 29 167 0.0 0.0 0.00 0.00 0.00 88 1013.7
20260507085616 29 167 0.0 0.0 0.00 0.00 0.00 88 1013.5
20260507085112 29 167 0.0 0.0 0.00 0.00 0.00 87 1013.7
20260507084609 29 167 0.0 0.0 0.00 0.00 0.00 87 1013.7
20260507084106 29 167 0.0 0.0 0.00 0.00 0.00 87 1013.7
20260507083603 30 167 0.0 0.0 0.00 0.00 0.00 86 1013.6
20260507083100 30 167 0.0 0.0 0.00 0.00 0.00 86 1013.6
20260507082555 30 167 0.0 0.0 0.00 0.00 0.00 87 1013.5
20260507082052 30 167 0.0 0.0 0.00 0.00 0.00 86 1013.5
20260507081548 30 167 0.0 0.0 0.00 0.00 0.00 86 1013.6
20260507081045 30 167 0.0 0.0 0.00 0.00 0.00 86 1013.8
20260507080541 30 167 0.0 0.0 0.00 0.00 0.00 86 1013.6
20260507080038 30 167 0.0 0.0 0.00 0.00 0.00 85 1013.7
20260507075533 30 167 0.0 0.0 0.00 0.00 0.00 85 1013.6
20260507075030 30 167 0.0 0.0 0.00 0.00 0.00 85 1013.9
20260507074526 31 167 0.0 0.0 0.00 0.00 0.00 85 1013.9
20260507074025 31 167 0.0 0.0 0.00 0.00 0.00 85 1013.9
20260507073521 30 167 0.0 0.0 0.00 0.00 0.00 85 1013.8
20260507073018 30 167 0.0 0.0 0.00 0.00 0.00 84 1013.7
20260507072515 30 167 0.0 0.0 0.00 0.00 0.00 83 1013.9
20260507072012 30 167 0.0 0.0 0.00 0.00 0.00 83 1013.7
20260507071509 30 167 0.0 0.0 0.00 0.00 0.00 82 1014.0
20260507071006 31 167 0.0 0.0 0.00 0.00 0.00 81 1014.0
20260507070503 31 167 0.0 0.0 0.00 0.00 0.00 81 1014.0
20260507070000 32 167 0.0 0.0 0.00 0.00 0.00 80 1014.1
20260507065456 32 167 0.0 0.0 0.00 0.00 0.00 80 1014.3
20260507064953 32 167 0.0 0.0 0.00 0.00 0.00 79 1014.1
20260507064452 32 167 0.0 0.0 0.00 0.00 0.00 78 1014.3
20260507063949 33 167 0.0 0.0 0.00 0.00 0.00 78 1014.4
20260507063446 33 167 0.0 0.0 0.00 0.00 0.00 77 1014.3
20260507062943 33 167 0.0 0.0 0.00 0.00 0.00 77 1014.3
20260507062440 33 167 0.0 0.0 0.00 0.00 0.00 76 1014.5
20260507061937 33 167 0.0 0.0 0.00 0.00 0.00 75 1014.4
20260507061435 33 167 0.0 0.0 0.00 0.00 0.00 74 1014.4
20260507060934 34 167 0.0 0.0 0.00 0.00 0.00 74 1014.6
20260507060430 34 167 0.0 0.0 0.00 0.00 0.00 73 1014.6
20260507055927 35 167 0.0 0.0 0.00 0.00 0.00 72 1014.4
20260507055422 35 167 0.0 0.0 0.00 0.00 0.00 72 1014.5
20260507054919 35 167 0.0 0.0 0.00 0.00 0.00 71 1014.4
20260507054415 36 167 0.0 0.0 0.00 0.00 0.00 70 1014.6
20260507053913 36 167 0.0 0.0 0.00 0.00 0.00 70 1014.7
20260507053410 37 167 0.0 0.0 0.00 0.00 0.00 68 1014.5
20260507052909 37 167 0.0 0.0 0.00 0.00 0.00 66 1014.7
20260507052406 38 167 0.0 0.0 0.00 0.00 0.00 66 1014.5
20260507051903 39 167 0.0 0.0 0.00 0.00 0.00 65 1014.7
20260507051400 39 167 0.0 0.0 0.00 0.00 0.00 65 1014.6
20260507050857 39 167 0.0 0.0 0.00 0.00 0.00 65 1014.6
20260507050354 39 167 0.0 0.0 0.00 0.00 0.00 65 1014.6
20260507045850 39 167 0.0 0.0 0.00 0.00 0.00 64 1014.7
20260507045347 39 167 0.0 0.0 0.00 0.00 0.00 64 1014.6
20260507044844 39 167 0.0 0.0 0.00 0.00 0.00 63 1014.7
20260507044341 40 167 0.0 0.0 0.00 0.00 0.00 62 1014.8
20260507043837 40 167 0.0 0.0 0.00 0.00 0.00 61 1014.8
20260507043334 40 167 0.0 0.0 0.00 0.00 0.00 62 1014.9
20260507042830 40 167 0.0 0.0 0.00 0.00 0.00 61 1014.9
20260507042325 39 167 0.0 0.0 0.00 0.00 0.00 59 1014.8
20260507041823 39 167 0.0 0.0 0.00 0.00 0.00 59 1015.0
20260507041319 39 167 0.0 0.0 0.00 0.00 0.00 59 1015.0
20260507040816 39 167 0.0 0.0 0.00 0.00 0.00 60 1015.0
20260507040312 39 167 0.0 0.0 0.00 0.00 0.00 60 1015.1
20260507035808 39 167 0.0 0.0 0.00 0.00 0.00 61 1015.1
20260507035306 38 167 0.0 0.0 0.00 0.00 0.00 63 1015.2
20260507034802 39 167 0.0 0.0 0.00 0.00 0.00 63 1015.1
20260507034258 38 167 0.0 0.0 0.00 0.00 0.00 64 1015.2
20260507033757 38 166 0.0 0.0 0.00 0.00 0.00 65 1015.0
20260507033254 37 167 0.0 0.0 0.00 0.00 0.00 64 1015.0
20260507032751 37 167 0.0 0.0 0.00 0.00 0.00 64 1015.2
20260507032247 37 167 0.0 0.0 0.00 0.00 0.00 65 1015.2
20260507031743 37 167 0.0 0.0 0.00 0.00 0.00 66 1015.1
20260507031241 37 167 0.0 0.0 0.00 0.00 0.00 66 1015.2
20260507030737 37 167 0.0 0.0 0.00 0.00 0.00 66 1015.3
20260507030235 36 167 0.0 0.0 0.00 0.00 0.00 65 1015.4
20260507025732 36 167 0.0 0.0 0.00 0.00 0.00 65 1015.2
20260507025229 36 167 0.0 0.0 0.00 0.00 0.00 65 1015.3
20260507024727 36 167 0.0 0.0 0.00 0.00 0.00 64 1015.1
20260507024224 36 167 0.0 0.0 0.00 0.00 0.00 64 1015.5
20260507023719 36 167 0.0 0.0 0.00 0.00 0.00 63 1015.4
20260507023216 36 167 0.0 0.0 0.00 0.00 0.00 63 1015.5
20260507022714 37 167 0.0 0.0 0.00 0.00 0.00 61 1015.2
20260507022209 37 167 0.0 0.0 0.00 0.00 0.00 60 1015.2
20260507021706 37 167 0.0 0.0 0.00 0.00 0.00 60 1015.4
20260507021201 38 167 0.0 0.0 0.00 0.00 0.00 60 1015.3
20260507020701 38 167 0.0 0.0 0.00 0.00 0.00 59 1015.3
20260507020156 39 166 0.0 0.0 0.00 0.00 0.00 58 1015.3
20260507015654 39 166 0.0 0.0 0.00 0.00 0.00 57 1015.4
20260507015151 39 166 0.0 0.0 0.00 0.00 0.00 56 1015.4
20260507014648 40 169 0.0 0.0 0.00 0.00 0.00 56 1015.2
20260507014144 41 161 0.0 0.0 0.00 0.00 0.00 55 1015.4
20260507013641 41 169 0.0 0.0 0.00 0.00 0.00 53 1015.2
20260507013138 42 168 0.0 0.0 0.00 0.00 0.00 52 1015.2
20260507012635 42 174 0.0 0.0 0.00 0.00 0.00 51 1015.3
20260507012130 42 172 0.0 0.0 0.00 0.00 0.00 51 1015.3
20260507011629 43 163 0.0 0.0 0.00 0.00 0.00 51 1015.5
20260507011125 43 169 0.0 0.0 0.00 0.00 0.00 50 1015.2
20260507010620 44 128 0.0 1.7 0.00 0.00 0.00 49 1015.4
20260507010116 44 166 0.0 1.7 0.00 0.00 0.00 49 1015.3
20260507005613 44 179 0.0 0.0 0.00 0.00 0.00 48 1015.3
20260507005109 45 168 0.9 1.7 0.00 0.00 0.00 47 1015.5
20260507004606 45 179 1.7 2.6 0.00 0.00 0.00 46 1015.3
20260507004104 46 157 1.7 2.6 0.00 0.00 0.00 45 1015.4
20260507003600 46 158 0.9 1.7 0.00 0.00 0.00 45 1015.3
20260507003055 46 7 3.5 4.3 0.00 0.00 0.00 46 1015.6
20260507002552 45 323 1.7 4.3 0.00 0.00 0.00 46 1015.5
20260507002047 45 202 0.9 1.7 0.00 0.00 0.00 46 1015.4
20260507001544 45 172 0.0 1.7 0.00 0.00 0.00 47 1015.4
20260507001042 46 170 1.7 1.7 0.00 0.00 0.00 46 1015.6
20260507000538 46 89 1.7 4.3 0.00 0.00 0.00 46 1015.4
20260507000033 46 349 0.9 2.6 0.00 0.00 0.00 47 1015.4
20260506235531 46 168 0.0 0.0 0.00 0.00 0.00 47 1015.5
20260506235021 46 183 0.9 1.7 0.00 0.00 0.00 47 1015.5
20260506234519 46 151 0.0 1.7 0.00 0.00 0.00 47 1015.4
20260506234016 46 188 2.6 2.6 0.00 0.00 0.00 46 1015.5
20260506233512 46 157 2.6 4.3 0.00 0.00 0.00 46 1015.6
20260506233009 46 91 2.6 2.6 0.00 0.00 0.00 45 1015.5
20260506232506 46 250 1.7 2.6 0.00 0.00 0.00 45 1015.5
20260506232001 46 200 0.0 0.0 0.00 0.00 0.00 47 1015.7
20260506231459 46 187 0.0 1.7 0.00 0.00 0.00 46 1015.7
20260506230956 46 224 3.5 4.3 0.00 0.00 0.00 46 1015.8
20260506230452 46 330 4.3 6.1 0.00 0.00 0.00 46 1015.7
20260506225949 46 346 4.3 6.1 0.00 0.00 0.00 46 1015.6
20260506225447 46 199 1.7 1.7 0.00 0.00 0.00 46 1015.7
20260506224943 46 351 3.5 4.3 0.00 0.00 0.00 46 1015.7
20260506224440 46 165 3.5 6.1 0.00 0.00 0.00 46 1015.9
20260506223936 47 175 0.9 1.7 0.00 0.00 0.00 46 1015.8
20260506223432 47 181 0.9 1.7 0.00 0.00 0.00 46 1015.7
20260506222929 46 173 0.9 1.7 0.00 0.00 0.00 48 1015.7
20260506222425 46 176 1.7 1.7 0.00 0.00 0.00 46 1015.7
20260506221923 46 180 0.9 1.7 0.00 0.00 0.00 46 1015.8
20260506221420 46 197 0.9 1.7 0.00 0.00 0.00 47 1015.8
20260506220918 46 317 2.6 4.3 0.00 0.00 0.00 45 1015.7
20260506220413 46 150 1.7 2.6 0.00 0.00 0.00 46 1015.8
20260506215910 46 355 3.5 4.3 0.00 0.00 0.00 46 1015.8
20260506215406 46 172 1.7 1.7 0.00 0.00 0.00 48 1016.0
20260506214902 46 240 3.5 6.1 0.00 0.00 0.00 46 1016.0
20260506214359 46 177 0.9 1.7 0.00 0.00 0.00 46 1016.1
20260506213857 46 192 1.7 2.6 0.00 0.00 0.00 46 1016.0
20260506213354 46 196 1.7 2.6 0.00 0.00 0.00 46 1016.2
20260506212851 47 158 1.7 2.6 0.00 0.00 0.00 45 1016.3
20260506212346 47 236 0.0 1.7 0.00 0.00 0.00 46 1016.2
20260506211841 46 180 1.7 1.7 0.00 0.00 0.00 46 1016.2
20260506211338 46 181 0.0 0.0 0.00 0.00 0.00 47 1016.3
20260506210835 46 258 2.6 4.3 0.00 0.00 0.00 47 1016.1
20260506210332 46 259 1.7 2.6 0.00 0.00 0.00 47 1016.2
20260506205829 46 192 0.9 1.7 0.00 0.00 0.00 49 1016.4
20260506205325 46 348 2.6 2.6 0.00 0.00 0.00 48 1016.4
20260506204822 45 358 5.2 7.8 0.00 0.00 0.00 48 1016.5
20260506204320 45 26 1.7 4.3 0.00 0.00 0.00 48 1016.4
20260506203817 46 193 1.7 2.6 0.00 0.00 0.00 48 1016.5